Location: Carri�res
(48.9069°N, 2.1792°E)
Time: 18:54:09
(UTC+00:00)

SeaSat 1 - Pass Details

Date: 12 May 2021
Orbit: 744 x 747 km, 108.0° (Epoch: 12 June)

Event Time Altitude Azimuth Distance (km) Brightness Sun altitude
Rises 00:39:33 0° 27° (NNE) 3,203 7.1 -22.0°
Reaches altitude 10° 00:41:50 10° 25° (NNE) 2,275 6.1 -21.9°
Maximum altitude 00:46:45 67° 304° (WNW) 814 2.6 -21.7°
Enters shadow 00:48:19 42° 238° (WSW) 1,062 2.9 -21.6°
